2024-105B (59918 NORAD) Tracking and Keplerian Element Data

This shows tracking and keplerian element data for the satellite.

Feedback or suggestion? Click here.




ElementValue
Catalog59918
Name2024-105B
Epoch Orbit124
Epoch Day160.183541
Epoch Year2024
RAAN166.5752
Inclination97.6018
Eccentricity0.0012244
Argument of Perigee263.0558
Mean Anonmoly96.9278
Mean Motion15.0907959
Decay Rate5.658E-05
L11 59918U 24105B 24160.18354100 .00005658 00000+0 36053-3 0 9992
L22 59918 97.6018 166.5752 0012244 263.0558 96.9278 15.09079590 1242



Live tracking and technical data element details for 2024-105B (NORAD 59918). 2024-105B can be tracked NOW for your location showing map with azimuth and elevation plus other details from your city location.







IsCatalogInMostPopularTable: catalog: 59918, numindb: 10
Update: records affected: 1



GetName: 59918 2024-105B

Hit Count: updated at: Thu, 25 Jul 2024 01:29:48 GMT